Year,Month,Day,Hour,Minute,Value (Times are PST for temperature in C)
2009,07,05,00,00,13.70
2009,07,05,00,01,13.70
2009,07,05,00,02,13.70
2009,07,05,00,03,13.70
2009,07,05,00,04,13.70
2009,07,05,00,05,13.70
2009,07,05,00,06,13.70
2009,07,05,00,07,13.70
2009,07,05,00,08,13.70
2009,07,05,00,09,13.70
2009,07,05,00,10,13.60
2009,07,05,00,11,13.60
2009,07,05,00,12,13.60
2009,07,05,00,13,13.50
2009,07,05,00,14,13.50
2009,07,05,00,15,13.50
2009,07,05,00,16,13.40
2009,07,05,00,17,13.40
2009,07,05,00,18,13.40
2009,07,05,00,19,13.40
2009,07,05,00,20,13.40
2009,07,05,00,21,13.30
2009,07,05,00,22,13.30
2009,07,05,00,23,13.30
2009,07,05,00,24,13.30
2009,07,05,00,25,13.30
2009,07,05,00,26,13.30
2009,07,05,00,27,13.30
2009,07,05,00,28,13.30
2009,07,05,00,29,13.30
2009,07,05,00,30,13.30
2009,07,05,00,31,13.30
2009,07,05,00,32,13.30
2009,07,05,00,33,13.30
2009,07,05,00,34,13.30
2009,07,05,00,35,13.30
2009,07,05,00,36,13.30
2009,07,05,00,37,13.30
2009,07,05,00,38,13.30
2009,07,05,00,39,13.30
2009,07,05,00,40,13.30
2009,07,05,00,41,13.30
2009,07,05,00,42,13.30
2009,07,05,00,43,13.30
2009,07,05,00,44,13.30
2009,07,05,00,45,13.30
2009,07,05,00,46,13.30
2009,07,05,00,47,13.30
2009,07,05,00,48,13.30
2009,07,05,00,49,13.30
2009,07,05,00,50,13.30
2009,07,05,00,51,13.30
2009,07,05,00,52,13.30
2009,07,05,00,53,13.30
2009,07,05,00,54,13.30
2009,07,05,00,55,13.30
2009,07,05,00,56,13.30
2009,07,05,00,57,13.30
2009,07,05,00,58,13.30
2009,07,05,00,59,13.30
2009,07,05,01,00,13.30
2009,07,05,01,01,13.30
2009,07,05,01,02,13.30
2009,07,05,01,03,13.30
2009,07,05,01,04,13.30
2009,07,05,01,05,13.20
2009,07,05,01,06,13.20
2009,07,05,01,07,13.20
2009,07,05,01,08,13.20
2009,07,05,01,09,13.20
2009,07,05,01,10,13.20
2009,07,05,01,11,13.20
2009,07,05,01,12,13.10
2009,07,05,01,13,13.10
2009,07,05,01,14,13.10
2009,07,05,01,15,13.10
2009,07,05,01,16,13.10
2009,07,05,01,17,13.10
2009,07,05,01,18,13.10
2009,07,05,01,19,13.10
2009,07,05,01,20,13.10
2009,07,05,01,21,13.10
2009,07,05,01,22,13.10
2009,07,05,01,23,13.10
2009,07,05,01,24,13.10
2009,07,05,01,25,13.10
2009,07,05,01,26,13.10
2009,07,05,01,27,13.10
2009,07,05,01,28,13.10
2009,07,05,01,29,13.10
2009,07,05,01,30,13.10
2009,07,05,01,31,13.10
2009,07,05,01,32,13.10
2009,07,05,01,33,13.10
2009,07,05,01,34,13.20
2009,07,05,01,35,13.20
2009,07,05,01,36,13.20
2009,07,05,01,37,13.20
2009,07,05,01,38,13.20
2009,07,05,01,39,13.20
2009,07,05,01,40,13.20
2009,07,05,01,41,13.20
2009,07,05,01,42,13.20
2009,07,05,01,43,13.20
2009,07,05,01,44,13.20
2009,07,05,01,45,13.20
2009,07,05,01,46,13.20
2009,07,05,01,47,13.20
2009,07,05,01,48,13.20
2009,07,05,01,49,13.30
2009,07,05,01,50,13.30
2009,07,05,01,51,13.30
2009,07,05,01,52,13.30
2009,07,05,01,53,13.30
2009,07,05,01,54,13.30
2009,07,05,01,55,13.30
2009,07,05,01,56,13.30
2009,07,05,01,57,13.30
2009,07,05,01,58,13.30
2009,07,05,01,59,13.20
2009,07,05,02,00,13.20
2009,07,05,02,01,13.20
2009,07,05,02,02,13.20
2009,07,05,02,03,13.20
2009,07,05,02,04,13.20
2009,07,05,02,05,13.20
2009,07,05,02,06,13.20
2009,07,05,02,07,13.10
2009,07,05,02,08,13.10
2009,07,05,02,09,13.10
2009,07,05,02,10,13.10
2009,07,05,02,11,13.10
2009,07,05,02,12,13.10
2009,07,05,02,13,13.10
2009,07,05,02,14,13.10
2009,07,05,02,15,13.10
2009,07,05,02,16,13.00
2009,07,05,02,17,13.00
2009,07,05,02,18,13.00
2009,07,05,02,19,13.00
2009,07,05,02,20,12.90
2009,07,05,02,21,12.90
2009,07,05,02,22,12.90
2009,07,05,02,23,12.90
2009,07,05,02,24,12.90
2009,07,05,02,25,12.80
2009,07,05,02,26,12.80
2009,07,05,02,27,12.80
2009,07,05,02,28,12.80
2009,07,05,02,29,12.80
2009,07,05,02,30,12.80
2009,07,05,02,31,12.80
2009,07,05,02,32,12.80
2009,07,05,02,33,12.80
2009,07,05,02,34,12.80
2009,07,05,02,35,12.80
2009,07,05,02,36,12.80
2009,07,05,02,37,12.70
2009,07,05,02,38,12.70
2009,07,05,02,39,12.70
2009,07,05,02,40,12.70
2009,07,05,02,41,12.70
2009,07,05,02,42,12.60
2009,07,05,02,43,12.60
2009,07,05,02,44,12.60
2009,07,05,02,45,12.60
2009,07,05,02,46,12.60
2009,07,05,02,47,12.60
2009,07,05,02,48,12.50
2009,07,05,02,49,12.50
2009,07,05,02,50,12.50
2009,07,05,02,51,12.50
2009,07,05,02,52,12.50
2009,07,05,02,53,12.50
2009,07,05,02,54,12.50
2009,07,05,02,55,12.50
2009,07,05,02,56,12.50
2009,07,05,02,57,12.40
2009,07,05,02,58,12.40
2009,07,05,02,59,12.40
2009,07,05,03,00,12.40
2009,07,05,03,01,12.40
2009,07,05,03,02,12.40
2009,07,05,03,03,12.40
2009,07,05,03,04,12.40
2009,07,05,03,05,12.40
2009,07,05,03,06,12.40
2009,07,05,03,07,12.40
2009,07,05,03,08,12.40
2009,07,05,03,09,12.40
2009,07,05,03,10,12.40
2009,07,05,03,11,12.40
2009,07,05,03,12,12.40
2009,07,05,03,13,12.40
2009,07,05,03,14,12.40
2009,07,05,03,15,12.30
2009,07,05,03,16,12.30
2009,07,05,03,17,12.30
2009,07,05,03,18,12.40
2009,07,05,03,19,12.40
2009,07,05,03,20,12.40
2009,07,05,03,21,12.40
2009,07,05,03,22,12.40
2009,07,05,03,23,12.40
2009,07,05,03,24,12.40
2009,07,05,03,25,12.40
2009,07,05,03,26,12.40
2009,07,05,03,27,12.40
2009,07,05,03,28,12.40
2009,07,05,03,29,12.40
2009,07,05,03,30,12.40
2009,07,05,03,31,12.40
2009,07,05,03,32,12.40
2009,07,05,03,33,12.40
2009,07,05,03,34,12.40
2009,07,05,03,35,12.40
2009,07,05,03,36,12.40
2009,07,05,03,37,12.40
2009,07,05,03,38,12.40
2009,07,05,03,39,12.40
2009,07,05,03,40,12.40
2009,07,05,03,41,12.40
2009,07,05,03,42,12.40
2009,07,05,03,43,12.40
2009,07,05,03,44,12.40
2009,07,05,03,45,12.40
2009,07,05,03,46,12.40
2009,07,05,03,47,12.40
2009,07,05,03,48,12.40
2009,07,05,03,49,12.40
2009,07,05,03,50,12.40
2009,07,05,03,51,12.40
2009,07,05,03,52,12.40
2009,07,05,03,53,12.50
2009,07,05,03,54,12.50
2009,07,05,03,55,12.50
2009,07,05,03,56,12.50
2009,07,05,03,57,12.50
2009,07,05,03,58,12.50
2009,07,05,03,59,12.50
2009,07,05,04,00,12.50
2009,07,05,04,01,12.50
2009,07,05,04,02,12.50
2009,07,05,04,03,12.50
2009,07,05,04,04,12.50
2009,07,05,04,05,12.50
2009,07,05,04,06,12.50
2009,07,05,04,07,12.50
2009,07,05,04,08,12.50
2009,07,05,04,09,12.50
2009,07,05,04,10,12.50
2009,07,05,04,11,12.50
2009,07,05,04,12,12.50
2009,07,05,04,13,12.50
2009,07,05,04,14,12.40
2009,07,05,04,15,12.40
2009,07,05,04,16,12.40
2009,07,05,04,17,12.40
2009,07,05,04,18,12.40
2009,07,05,04,19,12.40
2009,07,05,04,20,12.40
2009,07,05,04,21,12.40
2009,07,05,04,22,12.40
2009,07,05,04,23,12.40
2009,07,05,04,24,12.40
2009,07,05,04,25,12.40
2009,07,05,04,26,12.40
2009,07,05,04,27,12.40
2009,07,05,04,28,12.40
2009,07,05,04,29,12.40
2009,07,05,04,30,12.30
2009,07,05,04,31,12.30
2009,07,05,04,32,12.30
2009,07,05,04,33,12.40
2009,07,05,04,34,12.40
2009,07,05,04,35,12.40
2009,07,05,04,36,12.40
2009,07,05,04,37,12.40
2009,07,05,04,38,12.40
2009,07,05,04,39,12.40
2009,07,05,04,40,12.40
2009,07,05,04,41,12.40
2009,07,05,04,42,12.40
2009,07,05,04,43,12.40
2009,07,05,04,44,12.40
2009,07,05,04,45,12.40
2009,07,05,04,46,12.40
2009,07,05,04,47,12.40
2009,07,05,04,48,12.40
2009,07,05,04,49,12.50
2009,07,05,04,50,12.50
2009,07,05,04,51,12.50
2009,07,05,04,52,12.50
2009,07,05,04,53,12.50
2009,07,05,04,54,12.50
2009,07,05,04,55,12.50
2009,07,05,04,56,12.50
2009,07,05,04,57,12.50
2009,07,05,04,58,12.50
2009,07,05,04,59,12.50
2009,07,05,05,00,12.50
2009,07,05,05,01,12.50
2009,07,05,05,02,12.50
2009,07,05,05,03,12.50
2009,07,05,05,04,12.50
2009,07,05,05,05,12.50
2009,07,05,05,06,12.50
2009,07,05,05,07,12.50
2009,07,05,05,08,12.50
2009,07,05,05,09,12.50
2009,07,05,05,10,12.50
2009,07,05,05,11,12.50
2009,07,05,05,12,12.50
2009,07,05,05,13,12.50
2009,07,05,05,14,12.50
2009,07,05,05,15,12.50
2009,07,05,05,16,12.40
2009,07,05,05,17,12.40
2009,07,05,05,18,12.40
2009,07,05,05,19,12.40
2009,07,05,05,20,12.40
2009,07,05,05,21,12.40
2009,07,05,05,22,12.40
2009,07,05,05,23,12.40
2009,07,05,05,24,12.40
2009,07,05,05,25,12.40
2009,07,05,05,26,12.30
2009,07,05,05,27,12.30
2009,07,05,05,28,12.30
2009,07,05,05,29,12.30
2009,07,05,05,30,12.30
2009,07,05,05,31,12.30
2009,07,05,05,32,12.30
2009,07,05,05,33,12.30
2009,07,05,05,34,12.40
2009,07,05,05,35,12.40
2009,07,05,05,36,12.40
2009,07,05,05,37,12.40
2009,07,05,05,38,12.40
2009,07,05,05,39,12.40
2009,07,05,05,40,12.40
2009,07,05,05,41,12.40
2009,07,05,05,42,12.40
2009,07,05,05,43,12.40
2009,07,05,05,44,12.50
2009,07,05,05,45,12.50
2009,07,05,05,46,12.50
2009,07,05,05,47,12.50
2009,07,05,05,48,12.50
2009,07,05,05,49,12.50
2009,07,05,05,50,12.50
2009,07,05,05,51,12.50
2009,07,05,05,52,12.50
2009,07,05,05,53,12.50
2009,07,05,05,54,12.50
2009,07,05,05,55,12.50
2009,07,05,05,56,12.50
2009,07,05,05,57,12.50
2009,07,05,05,58,12.50
2009,07,05,05,59,12.50
2009,07,05,06,00,12.50
2009,07,05,06,01,12.50
2009,07,05,06,02,12.50
2009,07,05,06,03,12.50
2009,07,05,06,04,12.50
2009,07,05,06,05,12.50
2009,07,05,06,06,12.50
2009,07,05,06,07,12.50
2009,07,05,06,08,12.50
2009,07,05,06,09,12.50
2009,07,05,06,10,12.50
2009,07,05,06,11,12.50
2009,07,05,06,12,12.50
2009,07,05,06,13,12.50
2009,07,05,06,14,12.50
2009,07,05,06,15,12.50
2009,07,05,06,16,12.50
2009,07,05,06,17,12.50
2009,07,05,06,18,12.50
2009,07,05,06,19,12.50
2009,07,05,06,20,12.50
2009,07,05,06,21,12.50
2009,07,05,06,22,12.50
2009,07,05,06,23,12.50
2009,07,05,06,24,12.50
2009,07,05,06,25,12.50
2009,07,05,06,26,12.50
2009,07,05,06,27,12.50
2009,07,05,06,28,12.50
2009,07,05,06,29,12.50
2009,07,05,06,30,12.50
2009,07,05,06,31,12.50
2009,07,05,06,32,12.50
2009,07,05,06,33,12.60
2009,07,05,06,34,12.60
2009,07,05,06,35,12.60
2009,07,05,06,36,12.60
2009,07,05,06,37,12.60
2009,07,05,06,38,12.60
2009,07,05,06,39,12.60
2009,07,05,06,40,12.60
2009,07,05,06,41,12.60
2009,07,05,06,42,12.60
2009,07,05,06,43,12.60
2009,07,05,06,44,12.70
2009,07,05,06,45,12.70
2009,07,05,06,46,12.70
2009,07,05,06,47,12.70
2009,07,05,06,48,12.70
2009,07,05,06,49,12.70
2009,07,05,06,50,12.80
2009,07,05,06,51,12.80
2009,07,05,06,52,12.80
2009,07,05,06,53,12.80
2009,07,05,06,54,12.80
2009,07,05,06,55,12.90
2009,07,05,06,56,12.90
2009,07,05,06,57,12.90
2009,07,05,06,58,13.00
2009,07,05,06,59,13.00
2009,07,05,07,00,13.00
2009,07,05,07,01,13.10
2009,07,05,07,02,13.10
2009,07,05,07,03,13.10
2009,07,05,07,04,13.10
2009,07,05,07,05,13.20
2009,07,05,07,06,13.20
2009,07,05,07,07,13.20
2009,07,05,07,08,13.20
2009,07,05,07,09,13.30
2009,07,05,07,10,13.30
2009,07,05,07,11,13.30
2009,07,05,07,12,13.30
2009,07,05,07,13,13.40
2009,07,05,07,14,13.50
2009,07,05,07,15,13.50
2009,07,05,07,16,13.60
2009,07,05,07,17,13.60
2009,07,05,07,18,13.60
2009,07,05,07,19,13.70
2009,07,05,07,20,13.70
2009,07,05,07,21,13.80
2009,07,05,07,22,13.80
2009,07,05,07,23,13.90
2009,07,05,07,24,14.00
2009,07,05,07,25,14.00
2009,07,05,07,26,14.20
2009,07,05,07,27,14.20
2009,07,05,07,28,14.30
2009,07,05,07,29,14.40
2009,07,05,07,30,14.50
2009,07,05,07,31,14.50
2009,07,05,07,32,14.60
2009,07,05,07,33,14.70
2009,07,05,07,34,14.70
2009,07,05,07,35,14.70
2009,07,05,07,36,14.80
2009,07,05,07,37,14.80
2009,07,05,07,38,14.80
2009,07,05,07,39,14.80
2009,07,05,07,40,14.90
2009,07,05,07,41,15.00
2009,07,05,07,42,15.00
2009,07,05,07,43,15.10
2009,07,05,07,44,15.10
2009,07,05,07,45,15.20
2009,07,05,07,46,15.20
2009,07,05,07,47,15.30
2009,07,05,07,48,15.30
2009,07,05,07,49,15.30
2009,07,05,07,50,15.40
2009,07,05,07,51,15.40
2009,07,05,07,52,15.40
2009,07,05,07,53,15.50
2009,07,05,07,54,15.50
2009,07,05,07,55,15.60
2009,07,05,07,56,15.60
2009,07,05,07,57,15.70
2009,07,05,07,58,15.80
2009,07,05,07,59,15.80
2009,07,05,08,00,15.80
2009,07,05,08,01,15.90
2009,07,05,08,02,16.00
2009,07,05,08,03,16.10
2009,07,05,08,04,16.10
2009,07,05,08,05,16.20
2009,07,05,08,06,16.30
2009,07,05,08,07,16.40
2009,07,05,08,08,16.40
2009,07,05,08,09,16.50
2009,07,05,08,10,16.60
2009,07,05,08,11,16.70
2009,07,05,08,12,16.70
2009,07,05,08,13,16.80
2009,07,05,08,14,16.90
2009,07,05,08,15,17.00
2009,07,05,08,16,17.00
2009,07,05,08,17,17.10
2009,07,05,08,18,17.20
2009,07,05,08,19,17.20
2009,07,05,08,20,17.30
2009,07,05,08,21,17.30
2009,07,05,08,22,17.30
2009,07,05,08,23,17.40
2009,07,05,08,24,17.40
2009,07,05,08,25,17.40
2009,07,05,08,26,17.40
2009,07,05,08,27,17.40
2009,07,05,08,28,17.40
2009,07,05,08,29,17.40
2009,07,05,08,30,17.40
2009,07,05,08,31,17.40
2009,07,05,08,32,17.40
2009,07,05,08,33,17.30
2009,07,05,08,34,17.30
2009,07,05,08,35,17.30
2009,07,05,08,36,17.30
2009,07,05,08,37,17.20
2009,07,05,08,38,17.20
2009,07,05,08,39,17.10
2009,07,05,08,40,17.10
2009,07,05,08,41,17.00
2009,07,05,08,42,17.00
2009,07,05,08,43,16.90
2009,07,05,08,44,16.90
2009,07,05,08,45,16.90
2009,07,05,08,46,16.90
2009,07,05,08,47,16.90
2009,07,05,08,48,16.90
2009,07,05,08,49,16.90
2009,07,05,08,50,16.90
2009,07,05,08,51,16.90
2009,07,05,08,52,16.90
2009,07,05,08,53,16.90
2009,07,05,08,54,16.90
2009,07,05,08,55,16.90
2009,07,05,08,56,16.90
2009,07,05,08,57,16.80
2009,07,05,08,58,16.80
2009,07,05,08,59,16.70
2009,07,05,09,00,16.70
2009,07,05,09,01,16.70
2009,07,05,09,02,16.60
2009,07,05,09,03,16.60
2009,07,05,09,04,16.60
2009,07,05,09,05,16.60
2009,07,05,09,06,16.60
2009,07,05,09,07,16.60
2009,07,05,09,08,16.60
2009,07,05,09,09,16.60
2009,07,05,09,10,16.70
2009,07,05,09,11,16.70
2009,07,05,09,12,16.70
2009,07,05,09,13,16.70
2009,07,05,09,14,16.70
2009,07,05,09,15,16.70
2009,07,05,09,16,16.70
2009,07,05,09,17,16.70
2009,07,05,09,18,16.70
2009,07,05,09,19,16.80
2009,07,05,09,20,16.80
2009,07,05,09,21,16.80
2009,07,05,09,22,16.80
2009,07,05,09,23,16.90
2009,07,05,09,24,16.90
2009,07,05,09,25,16.90
2009,07,05,09,26,17.00
2009,07,05,09,27,17.00
2009,07,05,09,28,17.10
2009,07,05,09,29,17.20
2009,07,05,09,30,17.20
2009,07,05,09,31,17.30
2009,07,05,09,32,17.30
2009,07,05,09,33,17.30
2009,07,05,09,34,17.40
2009,07,05,09,35,17.50
2009,07,05,09,36,17.50
2009,07,05,09,37,17.50
2009,07,05,09,38,17.60
2009,07,05,09,39,17.60
2009,07,05,09,40,17.70
2009,07,05,09,41,17.80
2009,07,05,09,42,17.90
2009,07,05,09,43,17.90
2009,07,05,09,44,18.00
2009,07,05,09,45,18.10
2009,07,05,09,46,18.20
2009,07,05,09,47,18.20
2009,07,05,09,48,18.20
2009,07,05,09,49,18.30
2009,07,05,09,50,18.40
2009,07,05,09,51,18.50
2009,07,05,09,52,18.50
2009,07,05,09,53,18.60
2009,07,05,09,54,18.60
2009,07,05,09,55,18.60
2009,07,05,09,56,18.70
2009,07,05,09,57,18.70
2009,07,05,09,58,18.90
2009,07,05,09,59,18.90
2009,07,05,10,00,19.00
2009,07,05,10,01,19.10
2009,07,05,10,02,19.20
2009,07,05,10,03,19.30
2009,07,05,10,04,19.40
2009,07,05,10,05,19.50
2009,07,05,10,06,19.60
2009,07,05,10,07,19.60
2009,07,05,10,08,19.70
2009,07,05,10,09,19.70
2009,07,05,10,10,19.80
2009,07,05,10,11,19.80
2009,07,05,10,12,19.70
2009,07,05,10,13,19.70
2009,07,05,10,14,19.60
2009,07,05,10,15,19.50
2009,07,05,10,16,19.40
2009,07,05,10,17,19.40
2009,07,05,10,18,19.30
2009,07,05,10,19,19.30
2009,07,05,10,20,19.40
2009,07,05,10,21,19.40
2009,07,05,10,22,19.40
2009,07,05,10,23,19.50
2009,07,05,10,24,19.60
2009,07,05,10,25,19.80
2009,07,05,10,26,19.90
2009,07,05,10,27,19.90
2009,07,05,10,28,20.10
2009,07,05,10,29,20.20
2009,07,05,10,30,20.20
2009,07,05,10,31,20.20
2009,07,05,10,32,20.20
2009,07,05,10,33,20.20
2009,07,05,10,34,20.20
2009,07,05,10,35,20.30
2009,07,05,10,36,20.40
2009,07,05,10,37,20.50
2009,07,05,10,38,20.60
2009,07,05,10,39,20.80
2009,07,05,10,40,20.70
2009,07,05,10,41,20.70
2009,07,05,10,42,20.60
2009,07,05,10,43,20.50
2009,07,05,10,44,20.60
2009,07,05,10,45,20.60
2009,07,05,10,46,20.70
2009,07,05,10,47,20.70
2009,07,05,10,48,20.70
2009,07,05,10,49,20.80
2009,07,05,10,50,20.70
2009,07,05,10,51,20.70
2009,07,05,10,52,20.60
2009,07,05,10,53,20.60
2009,07,05,10,54,20.60
2009,07,05,10,55,20.60
2009,07,05,10,56,20.60
2009,07,05,10,57,20.60
2009,07,05,10,58,20.60
2009,07,05,10,59,20.60
2009,07,05,11,00,20.60
2009,07,05,11,01,20.60
2009,07,05,11,02,20.70
2009,07,05,11,03,20.70
2009,07,05,11,04,20.70
2009,07,05,11,05,20.60
2009,07,05,11,06,20.60
2009,07,05,11,07,20.60
2009,07,05,11,08,20.50
2009,07,05,11,09,20.50
2009,07,05,11,10,20.50
2009,07,05,11,11,20.40
2009,07,05,11,12,20.40
2009,07,05,11,13,20.40
2009,07,05,11,14,20.40
2009,07,05,11,15,20.50
2009,07,05,11,16,20.50
2009,07,05,11,17,20.60
2009,07,05,11,18,20.60
2009,07,05,11,19,20.70
2009,07,05,11,20,20.70
2009,07,05,11,21,20.80
2009,07,05,11,22,20.90
2009,07,05,11,23,20.90
2009,07,05,11,24,21.00
2009,07,05,11,25,21.00
2009,07,05,11,26,21.10
2009,07,05,11,27,21.10
2009,07,05,11,28,21.10
2009,07,05,11,29,21.10
2009,07,05,11,30,21.10
2009,07,05,11,31,21.20
2009,07,05,11,32,21.20
2009,07,05,11,33,21.20
2009,07,05,11,34,21.20
2009,07,05,11,35,21.10
2009,07,05,11,36,21.10
2009,07,05,11,37,21.10
2009,07,05,11,38,21.20
2009,07,05,11,39,21.20
2009,07,05,11,40,21.20
2009,07,05,11,41,21.20
2009,07,05,11,42,21.20
2009,07,05,11,43,21.20
2009,07,05,11,44,21.20
2009,07,05,11,45,21.20
2009,07,05,11,46,21.20
2009,07,05,11,47,21.20
2009,07,05,11,48,21.20
2009,07,05,11,49,21.30
2009,07,05,11,50,21.30
2009,07,05,11,51,21.40
2009,07,05,11,52,21.40
2009,07,05,11,53,21.50
2009,07,05,11,54,21.60
2009,07,05,11,55,21.60
2009,07,05,11,56,21.70
2009,07,05,11,57,21.70
2009,07,05,11,58,21.70
2009,07,05,11,59,21.70
2009,07,05,12,00,21.70
2009,07,05,12,01,21.60
2009,07,05,12,02,21.40
2009,07,05,12,03,21.20
2009,07,05,12,04,21.00
2009,07,05,12,05,20.90
2009,07,05,12,06,20.90
2009,07,05,12,07,20.80
2009,07,05,12,08,20.80
2009,07,05,12,09,20.70
2009,07,05,12,10,20.70
2009,07,05,12,11,20.70
2009,07,05,12,12,20.60
2009,07,05,12,13,20.70
2009,07,05,12,14,20.70
2009,07,05,12,15,20.80
2009,07,05,12,16,20.80
2009,07,05,12,17,20.80
2009,07,05,12,18,20.80
2009,07,05,12,19,20.90
2009,07,05,12,20,20.90
2009,07,05,12,21,20.90
2009,07,05,12,22,20.80
2009,07,05,12,23,20.70
2009,07,05,12,24,20.50
2009,07,05,12,25,20.40
2009,07,05,12,26,20.10
2009,07,05,12,27,19.90
2009,07,05,12,28,19.90
2009,07,05,12,29,19.80
2009,07,05,12,30,19.80
2009,07,05,12,31,19.80
2009,07,05,12,32,19.70
2009,07,05,12,33,19.80
2009,07,05,12,34,19.90
2009,07,05,12,35,19.90
2009,07,05,12,36,20.00
2009,07,05,12,37,20.20
2009,07,05,12,38,20.40
2009,07,05,12,39,20.60
2009,07,05,12,40,20.80
2009,07,05,12,41,21.00
2009,07,05,12,42,21.10
2009,07,05,12,43,21.30
2009,07,05,12,44,21.50
2009,07,05,12,45,21.70
2009,07,05,12,46,21.90
2009,07,05,12,47,22.10
2009,07,05,12,48,22.30
2009,07,05,12,49,22.50
2009,07,05,12,50,22.80
2009,07,05,12,51,22.90
2009,07,05,12,52,23.10
2009,07,05,12,53,23.20
2009,07,05,12,54,23.30
2009,07,05,12,55,23.40
2009,07,05,12,56,23.50
2009,07,05,12,57,23.40
2009,07,05,12,58,23.40
2009,07,05,12,59,23.40
2009,07,05,13,00,23.40
2009,07,05,13,01,23.40
2009,07,05,13,02,23.30
2009,07,05,13,03,23.40
2009,07,05,13,04,23.40
2009,07,05,13,05,23.40
2009,07,05,13,06,23.40
2009,07,05,13,07,23.10
2009,07,05,13,08,22.80
2009,07,05,13,09,22.50
2009,07,05,13,10,22.00
2009,07,05,13,11,21.50
2009,07,05,13,12,21.20
2009,07,05,13,13,21.00
2009,07,05,13,14,21.00
2009,07,05,13,15,20.80
2009,07,05,13,16,20.70
2009,07,05,13,17,20.60
2009,07,05,13,18,20.40
2009,07,05,13,19,20.20
2009,07,05,13,20,20.00
2009,07,05,13,21,19.90
2009,07,05,13,22,19.90
2009,07,05,13,23,19.90
2009,07,05,13,24,19.90
2009,07,05,13,25,19.90
2009,07,05,13,26,19.90
2009,07,05,13,27,19.90
2009,07,05,13,28,19.80
2009,07,05,13,29,19.80
2009,07,05,13,30,19.80
2009,07,05,13,31,19.90
2009,07,05,13,32,20.00
2009,07,05,13,33,20.10
2009,07,05,13,34,20.10
2009,07,05,13,35,20.10
2009,07,05,13,36,20.00
2009,07,05,13,37,19.90
2009,07,05,13,38,19.90
2009,07,05,13,39,19.90
2009,07,05,13,40,19.90
2009,07,05,13,41,19.90
2009,07,05,13,42,19.90
2009,07,05,13,43,19.90
2009,07,05,13,44,19.80
2009,07,05,13,45,19.70
2009,07,05,13,46,19.60
2009,07,05,13,47,19.60
2009,07,05,13,48,19.70
2009,07,05,13,49,19.80
2009,07,05,13,50,20.00
2009,07,05,13,51,20.20
2009,07,05,13,52,20.50
2009,07,05,13,53,20.70
2009,07,05,13,54,20.70
2009,07,05,13,55,20.80
2009,07,05,13,56,20.90
2009,07,05,13,57,21.00
2009,07,05,13,58,21.10
2009,07,05,13,59,21.30
2009,07,05,14,00,21.30
2009,07,05,14,01,21.20
2009,07,05,14,02,21.10
2009,07,05,14,03,20.90
2009,07,05,14,04,20.70
2009,07,05,14,05,20.50
2009,07,05,14,06,20.20
2009,07,05,14,07,20.00
2009,07,05,14,08,19.80
2009,07,05,14,09,19.60
2009,07,05,14,10,19.50
2009,07,05,14,11,19.50
2009,07,05,14,12,19.60
2009,07,05,14,13,19.60
2009,07,05,14,14,19.60
2009,07,05,14,15,19.70
2009,07,05,14,16,19.70
2009,07,05,14,17,19.80
2009,07,05,14,18,19.80
2009,07,05,14,19,19.90
2009,07,05,14,20,20.10
2009,07,05,14,21,20.10
2009,07,05,14,22,20.10
2009,07,05,14,23,20.10
2009,07,05,14,24,19.90
2009,07,05,14,25,19.90
2009,07,05,14,26,20.10
2009,07,05,14,27,20.10
2009,07,05,14,28,20.20
2009,07,05,14,29,20.20
2009,07,05,14,30,20.30
2009,07,05,14,31,20.30
2009,07,05,14,32,20.20
2009,07,05,14,33,20.20
2009,07,05,14,34,20.00
2009,07,05,14,35,19.80
2009,07,05,14,36,19.80
2009,07,05,14,37,19.80
2009,07,05,14,38,19.80
2009,07,05,14,39,19.90
2009,07,05,14,40,20.10
2009,07,05,14,41,20.20
2009,07,05,14,42,20.30
2009,07,05,14,43,20.30
2009,07,05,14,44,20.30
2009,07,05,14,45,20.30
2009,07,05,14,46,20.20
2009,07,05,14,47,20.20
2009,07,05,14,48,20.20
2009,07,05,14,49,20.20
2009,07,05,14,50,20.20
2009,07,05,14,51,20.20
2009,07,05,14,52,20.20
2009,07,05,14,53,20.20
2009,07,05,14,54,20.20
2009,07,05,14,55,20.20
2009,07,05,14,56,20.20
2009,07,05,14,57,20.20
2009,07,05,14,58,20.20
2009,07,05,14,59,20.20
2009,07,05,15,00,20.10
2009,07,05,15,01,20.00
2009,07,05,15,02,19.90
2009,07,05,15,03,19.90
2009,07,05,15,04,19.80
2009,07,05,15,05,19.80
2009,07,05,15,06,19.80
2009,07,05,15,07,19.80
2009,07,05,15,08,19.80
2009,07,05,15,09,19.80
2009,07,05,15,10,19.80
2009,07,05,15,11,19.90
2009,07,05,15,12,20.00
2009,07,05,15,13,20.20
2009,07,05,15,14,20.20
2009,07,05,15,15,20.20
2009,07,05,15,16,20.20
2009,07,05,15,17,20.20
2009,07,05,15,18,20.00
2009,07,05,15,19,19.80
2009,07,05,15,20,19.70
2009,07,05,15,21,19.60
2009,07,05,15,22,19.40
2009,07,05,15,23,19.30
2009,07,05,15,24,19.20
2009,07,05,15,25,19.20
2009,07,05,15,26,19.30
2009,07,05,15,27,19.40
2009,07,05,15,28,19.40
2009,07,05,15,29,19.60
2009,07,05,15,30,19.70
2009,07,05,15,31,19.80
2009,07,05,15,32,19.90
2009,07,05,15,33,20.10
2009,07,05,15,34,20.10
2009,07,05,15,35,20.10
2009,07,05,15,36,20.00
2009,07,05,15,37,19.90
2009,07,05,15,38,20.00
2009,07,05,15,39,20.10
2009,07,05,15,40,20.00
2009,07,05,15,41,19.90
2009,07,05,15,42,19.70
2009,07,05,15,43,19.60
2009,07,05,15,44,19.50
2009,07,05,15,45,19.50
2009,07,05,15,46,19.50
2009,07,05,15,47,19.60
2009,07,05,15,48,19.70
2009,07,05,15,49,19.80
2009,07,05,15,50,19.80
2009,07,05,15,51,19.90
2009,07,05,15,52,19.90
2009,07,05,15,53,20.10
2009,07,05,15,54,20.10
2009,07,05,15,55,20.00
2009,07,05,15,56,19.90
2009,07,05,15,57,19.90
2009,07,05,15,58,19.90
2009,07,05,15,59,19.90
2009,07,05,16,00,19.90
2009,07,05,16,01,19.90
2009,07,05,16,02,19.90
2009,07,05,16,03,19.90
2009,07,05,16,04,19.90
2009,07,05,16,05,20.10
2009,07,05,16,06,20.10
2009,07,05,16,07,20.20
2009,07,05,16,08,20.20
2009,07,05,16,09,20.30
2009,07,05,16,10,20.40
2009,07,05,16,11,20.40
2009,07,05,16,12,20.40
2009,07,05,16,13,20.40
2009,07,05,16,14,20.40
2009,07,05,16,15,20.30
2009,07,05,16,16,20.30
2009,07,05,16,17,20.30
2009,07,05,16,18,20.20
2009,07,05,16,19,20.10
2009,07,05,16,20,20.00
2009,07,05,16,21,19.90
2009,07,05,16,22,19.90
2009,07,05,16,23,19.90
2009,07,05,16,24,19.90
2009,07,05,16,25,19.90
2009,07,05,16,26,19.90
2009,07,05,16,27,19.90
2009,07,05,16,28,19.80
2009,07,05,16,29,19.70
2009,07,05,16,30,19.60
2009,07,05,16,31,19.60
2009,07,05,16,32,19.50
2009,07,05,16,33,19.50
2009,07,05,16,34,19.50
2009,07,05,16,35,19.50
2009,07,05,16,36,19.50
2009,07,05,16,37,19.50
2009,07,05,16,38,19.50
2009,07,05,16,39,19.50
2009,07,05,16,40,19.50
2009,07,05,16,41,19.60
2009,07,05,16,42,19.60
2009,07,05,16,43,19.70
2009,07,05,16,44,19.70
2009,07,05,16,45,19.80
2009,07,05,16,46,19.90
2009,07,05,16,47,20.00
2009,07,05,16,48,20.10
2009,07,05,16,49,20.10
2009,07,05,16,50,20.20
2009,07,05,16,51,20.20
2009,07,05,16,52,20.20
2009,07,05,16,53,20.10
2009,07,05,16,54,20.10
2009,07,05,16,55,20.20
2009,07,05,16,56,20.20
2009,07,05,16,57,20.20
2009,07,05,16,58,20.20
2009,07,05,16,59,20.30
2009,07,05,17,00,20.30
2009,07,05,17,01,20.30
2009,07,05,17,02,20.40
2009,07,05,17,03,20.40
2009,07,05,17,04,20.50
2009,07,05,17,05,20.50
2009,07,05,17,06,20.60
2009,07,05,17,07,20.60
2009,07,05,17,08,20.60
2009,07,05,17,09,20.70
2009,07,05,17,10,20.70
2009,07,05,17,11,20.70
2009,07,05,17,12,20.70
2009,07,05,17,13,20.80
2009,07,05,17,14,20.80
2009,07,05,17,15,20.80
2009,07,05,17,16,20.80
2009,07,05,17,17,20.80
2009,07,05,17,18,20.80
2009,07,05,17,19,20.80